This is the latest recevied weather packets stored in our database for station/object W2GRK-15. If no packets are shown the sender has not sent any weather packets the latest 10 day(s).
| Time | Temp. | Humidity | Pressure | Rain* | Wind** | Luminosity | Snow |
|---|---|---|---|---|---|---|---|
| 1777139547 | 6.11° C | 94% | 1018.1 hPa | 1.52 mm | - | 109 W/m² | - |
| 1777139370 | 6.11° C | 94% | 1018.1 hPa | 1.52 mm | - | 113 W/m² | - |
| 1777139306 | 6.11° C | 94% | 1017.9 hPa | 1.52 mm | - | 101 W/m² | - |
| 1777138887 | 6.11° C | 94% | 1018.1 hPa | 1.52 mm | - | 116 W/m² | - |
| 1777138823 | 6.11° C | 94% | 1018 hPa | 1.27 mm | - | 128 W/m² | - |
| 1777138645 | 6.11° C | 94% | 1018.1 hPa | 1.27 mm | - | 101 W/m² | - |
| 1777138404 | 6.11° C | 93% | 1018 hPa | 1.27 mm | - | 107 W/m² | - |
| 1777138162 | 6.11° C | 93% | 1018 hPa | 1.02 mm | - | 109 W/m² | - |
| 1777137522 | 6.11° C | 92% | 1017.8 hPa | 1.02 mm | - | 104 W/m² | - |
| 1777137216 | 6.11° C | 91% | 1017.8 hPa | 0.76 mm | - | 110 W/m² | - |
| 1777136536 | 6.67° C | 87% | 1018.6 hPa | 0 mm | - | 76 W/m² | - |
| 1777136423 | 6.67° C | 86% | 1018.6 hPa | 0 mm | - | 83 W/m² | - |
| 1777136004 | 6.67° C | 86% | 1018.6 hPa | 0 mm | - | 121 W/m² | - |
| 1777135343 | 6.67° C | 87% | 1018.5 hPa | 0 mm | - | 71 W/m² | - |
| 1777135037 | 6.67° C | 87% | 1018.6 hPa | 0 mm | - | 84 W/m² | - |
| 1777134989 | 6.67° C | 88% | 1018.6 hPa | 0 mm | - | 87 W/m² | - |
| 1777134795 | 6.67° C | 88% | 1018.5 hPa | 0 mm | - | 85 W/m² | - |
| 1777134570 | 6.67° C | 87% | 1018.8 hPa | 0 mm | - | 77 W/m² | - |
| 1777133905 | 6.67° C | 89% | 1018.6 hPa | 0 mm | - | 107 W/m² | - |
| 1777133661 | 6.67° C | 89% | 1018.3 hPa | 0 mm | - | 119 W/m² | - |
| 1777133367 | 6.67° C | 90% | 1018.5 hPa | 0.25 mm | - | 106 W/m² | - |
| 1777133236 | 6.67° C | 90% | 1018.6 hPa | 0.25 mm | - | 93 W/m² | - |
| 1777132647 | 6.67° C | 92% | 1018.4 hPa | 1.27 mm | - | 57 W/m² | - |
| 1777132582 | 6.67° C | 92% | 1018.5 hPa | 1.52 mm | - | 56 W/m² | - |
| 1777132288 | 6.67° C | 92% | 1018.6 hPa | 1.52 mm | - | 49 W/m² | - |
* Rain latest hour (hover to see other rain measurements)
** Current wind speed in m/s (hover to see current wind gust speed)